This is the latest recevied weather packets stored in our database for station/object K4KMJ. If no packets are shown the sender has not sent any weather packets the latest 10 day(s).
| Time | Temp. | Humidity | Pressure | Rain* | Wind** | Luminosity | Snow |
|---|---|---|---|---|---|---|---|
| 1788206236 | 27.78° C | 95% | 1018.7 hPa | 0 mm | - | 139 W/m² | - |
| 1788205932 | 27.78° C | 94% | 1018.9 hPa | 0 mm | - | 140 W/m² | - |
| 1788205626 | 27.78° C | 93% | 1018.9 hPa | 0 mm | - | 130 W/m² | - |
| 1788205322 | 28.33° C | 93% | 1019.1 hPa | 0 mm | - | 131 W/m² | - |
| 1788205016 | 28.33° C | 92% | 1019 hPa | 0 mm | - | 130 W/m² | - |
| 1788204711 | 28.33° C | 92% | 1019 hPa | 0 mm | - | 129 W/m² | - |
| 1788204406 | 28.33° C | 92% | 1019.1 hPa | 0 mm | - | 124 W/m² | - |
| 1788204102 | 28.33° C | 92% | 1019.1 hPa | 0 mm | - | 116 W/m² | - |
| 1788203797 | 28.89° C | 92% | 1019 hPa | 0 mm | - | 115 W/m² | - |
| 1788203493 | 28.89° C | 92% | 1018.9 hPa | 0 mm | - | 114 W/m² | - |
| 1788203188 | 28.89° C | 91% | 1019.1 hPa | 0 mm | - | 116 W/m² | - |
| 1788202887 | 28.33° C | 91% | 1019.1 hPa | 0 mm | - | 123 W/m² | - |
| 1788202583 | 28.89° C | 91% | 1019.1 hPa | 0 mm | - | 125 W/m² | - |
| 1788202278 | 28.89° C | 90% | 1018.9 hPa | 0 mm | - | 125 W/m² | - |
| 1788201978 | 28.89° C | 90% | 1019 hPa | 0 mm | - | 134 W/m² | - |
| 1788201673 | 28.89° C | 89% | 1019.2 hPa | 0 mm | - | 144 W/m² | - |
| 1788201367 | 28.89° C | 88% | 1018.9 hPa | 0 mm | - | 152 W/m² | - |
| 1788201067 | 28.89° C | 87% | 1019.1 hPa | 0 mm | - | 157 W/m² | - |
| 1788200766 | 28.89° C | 85% | 1019 hPa | 0 mm | - | 166 W/m² | - |
| 1788200462 | 28.89° C | 85% | 1019 hPa | 0 mm | - | 160 W/m² | - |
| 1788200162 | 28.89° C | 85% | 1019 hPa | 0 mm | - | 175 W/m² | - |
| 1788199856 | 28.33° C | 86% | 1018.9 hPa | 0 mm | - | 183 W/m² | - |
| 1788199551 | 28.33° C | 86% | 1019 hPa | 0 mm | - | 190 W/m² | - |
| 1788199247 | 28.33° C | 87% | 1019 hPa | 0 mm | - | 204 W/m² | - |
| 1788198942 | 28.33° C | 87% | 1019.3 hPa | 0 mm | - | 228 W/m² | - |
* Rain latest hour (hover to see other rain measurements)
** Current wind speed in m/s (hover to see current wind gust speed)